Location: Fours
(44.3167°N, 6.7000°E)
Time: 23:39:01
(UTC+00:00)

Cosmos 1048 Rocket - Pass Details

Date: 16 October 2021
Orbit: 743 x 791 km, 74.0° (Epoch: 05 December)

Event Time Altitude Azimuth Distance (km) Brightness Sun altitude
Rises 17:12:16 0° 342° (NNW) 3,297 7.4 -5.2°
Reaches altitude 10° 17:14:43 10° 346° (NNW) 2,361 6.6 -5.7°
Maximum altitude 17:20:01 58° 66° (ENE) 917 4.1 -6.6°
Drops below altitude 10° 17:25:14 10° 145° (SE) 2,323 6.2 -7.5°
Sets 17:27:38 0° 149° (SSE) 3,239 7.0 -8.0°
